Regional Weather Roundup
Issued by NWS

Home | Current Version | Previous Version | Text Only | Print | Product List | Glossary On
Versions: 1 2 3 4 5 6 7 8 9 10 11 12 13 14 15 16 17 18 19 20 21 22 23 24 25 26 27 28 29 30 31 32 33 34 35 36 37 38 39 40 41 42 43 44 45 46 47 48 49 50
000
ASUS43 KBIS 281202
RWRND

NORTH DAKOTA REGIONAL WEATHER ROUNDUP
NATIONAL WEATHER SERVICE BISMARCK ND
700 AM CDT THU MAY 28 2015

NOTE: "FAIR" INDICATES FEW OR NO CLOUDS BELOW 12,000 FEET WITH NO
SIGNIFICANT WEATHER AND/OR OBSTRUCTIONS TO VISIBILITY.


NDZ001>003-009>011-017-281300-
NORTHWEST NORTH DAKOTA

CITY           SKY/WX    TMP DP  RH WIND       PRES   REMARKS
WILLISTON      CLEAR     54  53  97 S3        29.88S
6HR MIN TEMP:  53; 6HR MAX TEMP:  58;

MINOT          CLOUDY    58  56  93 SE8       29.86F FOG
MINOT AFB      CLOUDY    58  58 100 SE10      29.86F
$$

NDZ018>021-031>035-040>046-281300-
SOUTHWEST NORTH DAKOTA

CITY           SKY/WX    TMP DP  RH WIND       PRES   REMARKS
BISMARCK       CLOUDY    59  56  89 CALM      29.89S
6HR MIN TEMP:  57; 6HR MAX TEMP:  60; 6HR PCP: TRACE;

DICKINSON      CLOUDY    52  51  97 CALM      29.89R
GARRISON         N/A     57  55  93 S6        29.87F
6HR MIN TEMP:  55; 6HR MAX TEMP:  60; 6HR PCP:  0.01;

HETTINGER ARPT FOG       50  49  96 CALM      29.93R VSB 1/4
$$

NDZ004>008-012>016-024-026-027-054-281300-
NORTHEAST NORTH DAKOTA

CITY           SKY/WX    TMP DP  RH WIND       PRES   REMARKS
GRAND FORKS    LGT RAIN  56  55  97 NE7       29.94F
GRND FRKS AFB  LGT RAIN  55  53  94 E5        29.94S FOG
DEVILS LAKE    PTSUNNY   61  54  77 SE10      29.90S
$$

NDZ022-023-025-028>030-036>039-047>053-281300-
SOUTHEAST NORTH DAKOTA

CITY           SKY/WX    TMP DP  RH WIND       PRES   REMARKS
FARGO          RAIN      61  58  90 MISG      29.96R FOG
6HR MIN TEMP:  61; 6HR MAX TEMP:  67; 6HR PCP:  0.07;

JAMESTOWN      CLOUDY    60  57  89 E6        29.91R
$$




USA.gov is the U.S. government's official web portal to all federal, state and local government web resources and services.